Location: Antin
(43.3330°N, 0.2804°E)
Time: 06:42:09
(UTC+00:00)

SME Rocket - Pass Details

Date: 18 December 2023
Orbit: 550 x 2645 km, 99.9° (Epoch: 04 March)

Event Time Altitude Azimuth Distance (km) Brightness Sun altitude
Rises 05:13:51 0° 21° (NNE) 6,153 8.3 -23.1°
Reaches altitude 10° 05:19:04 10° 36° (NE) 5,300 8.1 -22.2°
Maximum altitude 05:29:07 22° 81° (E) 4,442 8.1 -20.4°
Drops below altitude 10° 05:38:45 10° 126° (SE) 5,116 8.8 -18.7°
Sets 05:43:30 0° 140° (SE) 5,897 9.0 -17.8°
